Location: Hurecourt
(47.9030°N, 6.0653°E)
Time: 10:33:12
(UTC+00:00)

Cosmos 1733 Rocket - Pass Details

Date: 14 July 2020
Orbit: 604 x 628 km, 82.5° (Epoch: 05 August)

Event Time Altitude Azimuth Distance (km) Brightness Sun altitude
Exits shadow 01:29:33 15° 152° (SSE) 1,642 4.9 -16.4°
Maximum altitude 01:32:39 36° 91° (E) 960 4.2 -16.1°
Drops below altitude 10° 01:36:37 10° 25° (NNE) 1,963 7.0 -15.8°
Sets 01:38:57 0° 17° (NNE) 2,873 8.2 -15.7°
